EW7336 Weather Reports


time (UTC)temp
F
wind
direction
speed
knots
gust
knots
rain 1hr
in
rain 24hr
in
rain mn
in
humidity
%
barometer
mb
20260509043030 55 298 0.0 3.5 0.03 0.11 0.02 94 1009.2
20260509041525 55 292 0.9 3.5 0.02 0.10 0.01 94 1009.3
20260509040029 55 317 0.9 5.2 0.02 0.09 0.00 94 1009.5
20260509034522 55 336 0.9 4.3 0.02 0.08 0.08 94 1009.6
20260509033021 55 267 0.9 3.5 0.03 0.08 0.08 93 1009.8
20260509031525 55 260 0.0 2.6 0.06 0.08 0.08 93 1009.9
20260509030032 55 260 0.0 1.7 0.06 0.07 0.07 92 1009.9
20260509024519 55 260 0.0 0.9 0.05 0.06 0.06 92 1009.9
20260509023021 55 260 0.0 0.9 0.04 0.05 0.05 92 1009.8
20260509021523 55 260 0.0 2.6 0.02 0.02 0.02 91 1010.0
20260509020016 55 250 0.9 7.0 0.01 0.01 0.01 90 1010.0
20260509014514 56 327 0.9 5.2 0.01 0.01 0.01 89 1009.9
20260509013013 56 346 1.7 3.5 0.01 0.01 0.01 87 1009.9
20260509011511 57 280 2.6 5.2 0.00 0.00 0.00 85 1010.2
20260509010010 57 337 0.9 2.6 0.00 0.00 0.00 83 1009.3
20260509004513 58 337 0.9 3.5 0.00 0.00 0.00 82 1009.0
20260509003109 58 337 0.9 2.6 0.00 0.00 0.00 79 1009.1
20260509001509 59 336 1.7 4.3 0.00 0.00 0.00 76 1009.0
20260509000006 61 275 2.6 6.1 0.00 0.00 0.00 70 1009.4
20260508234512 63 330 2.6 5.2 0.00 0.00 0.00 63 1009.2
20260508233008 63 213 1.7 5.2 0.00 0.00 0.00 62 1009.0
20260508231504 63 197 0.9 4.3 0.00 0.00 0.00 61 1008.9
20260508230003 63 200 1.7 3.5 0.00 0.00 0.00 61 1008.8
20260508224501 63 200 0.9 2.6 0.00 0.00 0.00 62 1008.9
20260508223001 63 200 0.0 0.9 0.00 0.00 0.00 66 1008.8
20260508221600 63 200 0.0 2.6 0.00 0.00 0.00 63 1008.8
20260508220059 64 360 0.9 3.5 0.00 0.00 0.00 59 1008.8
20260508214601 65 360 1.7 5.2 0.00 0.00 0.00 53 1008.8
20260508213058 65 205 1.7 7.0 0.00 0.00 0.00 53 1008.8
20260508211600 65 209 3.5 6.1 0.00 0.00 0.00 53 1008.7
20260508210059 65 193 3.5 7.0 0.00 0.00 0.00 53 1009.1
20260508204558 65 209 2.6 7.0 0.00 0.00 0.00 53 1008.9
20260508203103 65 191 2.6 7.0 0.00 0.00 0.00 51 1009.2
20260508201558 65 228 4.3 8.7 0.00 0.00 0.00 52 1009.7
20260508200049 65 203 4.3 12.2 0.00 0.00 0.00 52 1010.1
20260508194546 66 207 4.3 9.6 0.00 0.00 0.00 51 1010.1
20260508193044 66 219 5.2 10.4 0.00 0.00 0.00 50 1010.4
20260508191548 66 234 3.5 8.7 0.00 0.00 0.00 51 1010.6
20260508190040 66 226 5.2 9.6 0.00 0.00 0.00 49 1010.8
20260508184539 66 209 3.5 10.4 0.00 0.00 0.00 51 1010.9
20260508183040 66 175 2.6 7.8 0.00 0.00 0.00 52 1010.9
20260508181536 67 360 3.5 9.6 0.00 0.00 0.00 50 1011.0
20260508180036 67 199 4.3 8.7 0.00 0.00 0.00 52 1011.3
20260508174528 66 194 2.6 9.6 0.00 0.00 0.00 56 1011.5
20260508173025 64 211 2.6 10.4 0.00 0.00 0.00 54 1012.0
20260508171521 64 192 3.5 8.7 0.00 0.00 0.00 55 1012.3
20260508170019 64 210 4.3 9.6 0.00 0.00 0.00 57 1012.6
20260508164515 63 184 3.5 8.7 0.00 0.00 0.00 57 1012.9
20260508163012 63 176 3.5 8.7 0.00 0.00 0.00 57 1013.1
20260508161509 62 199 4.3 8.7 0.00 0.00 0.00 57 1013.3
20260508160012 62 217 4.3 11.3 0.00 0.00 0.00 59 1013.5
20260508154506 61 194 4.3 9.6 0.00 0.00 0.00 59 1013.6
20260508153003 61 225 7.0 11.3 0.00 0.00 0.00 58 1013.6
20260508151501 61 193 6.1 10.4 0.00 0.00 0.00 57 1013.6
20260508150109 61 211 7.0 13.0 0.00 0.00 0.00 58 1013.7
20260508144553 60 217 6.1 14.8 0.00 0.00 0.00 59 1013.8
20260508143106 59 158 3.5 9.6 0.00 0.00 0.00 60 1014.1
20260508141545 58 175 5.2 9.6 0.00 0.00 0.00 59 1014.1
20260508140049 57 244 5.2 13.0 0.00 0.00 0.00 60 1014.3
20260508134538 56 212 5.2 12.2 0.00 0.00 0.00 61 1014.4
20260508133032 55 230 4.3 8.7 0.00 0.00 0.00 63 1014.4
20260508131527 54 208 2.6 6.1 0.00 0.00 0.00 67 1014.4
20260508130022 53 215 2.6 8.7 0.00 0.00 0.00 67 1014.4
20260508124517 51 200 3.5 8.7 0.00 0.00 0.00 69 1014.5
20260508123013 50 205 2.6 6.1 0.00 0.00 0.00 70 1014.4
20260508121512 49 198 2.6 6.1 0.00 0.00 0.00 70 1014.3
20260508120011 48 198 2.6 6.1 0.00 0.00 0.00 72 1014.3
20260508114510 48 200 1.7 5.2 0.00 0.00 0.00 73 1014.1
20260508113008 47 198 0.9 4.3 0.00 0.00 0.00 74 1014.1
20260508111506 47 198 1.7 3.5 0.00 0.00 0.00 73 1014.0
20260508110006 47 198 0.9 5.2 0.00 0.00 0.00 72 1013.9
20260508104504 47 198 1.7 3.5 0.00 0.00 0.00 72 1013.9
20260508103002 47 198 0.9 3.5 0.00 0.00 0.00 72 1013.7
20260508101559 48 198 0.9 2.6 0.00 0.00 0.00 72 1013.8
20260508100058 48 198 1.7 2.6 0.00 0.00 0.00 71 1013.8
20260508094558 49 198 2.6 4.3 0.00 0.00 0.00 69 1013.8
20260508093056 49 198 0.9 4.3 0.00 0.00 0.00 70 1013.8
20260508091608 49 198 1.7 4.3 0.00 0.00 0.00 69 1013.8
20260508090056 50 198 1.7 7.0 0.00 0.00 0.00 68 1013.9
20260508084603 50 192 2.6 5.2 0.00 0.00 0.00 67 1013.9
20260508083103 50 201 1.7 4.3 0.00 0.00 0.00 69 1013.9
20260508081554 49 199 1.7 5.2 0.00 0.00 0.00 68 1013.8
20260508080105 49 199 1.7 4.3 0.00 0.00 0.00 70 1013.9
20260508074554 48 200 1.7 4.3 0.00 0.00 0.00 71 1013.9
20260508073056 48 200 0.9 3.5 0.00 0.00 0.00 72 1013.9
20260508071547 48 200 0.9 5.2 0.00 0.00 0.00 72 1013.9
20260508070044 48 209 0.9 2.6 0.00 0.00 0.00 71 1014.1
20260508064547 49 209 0.0 2.6 0.00 0.00 0.00 69 1014.1
20260508063042 49 217 0.9 3.5 0.00 0.00 0.00 69 1014.3
20260508061538 49 217 1.7 4.3 0.00 0.00 0.00 68 1014.4
20260508060037 49 218 1.7 4.3 0.00 0.00 0.00 68 1014.4
20260508054544 49 194 1.7 4.3 0.00 0.00 0.00 67 1014.7
20260508053038 50 194 1.7 4.3 0.00 0.00 0.00 67 1014.5
20260508051538 49 195 1.7 4.3 0.00 0.00 0.00 68 1014.6
20260508050035 50 194 0.9 2.6 0.00 0.00 0.00 68 1014.6
20260508044529 50 195 1.7 3.5 0.00 0.00 0.00 67 1014.6